Regional Weather Roundup
Issued by NWS Newport/Morehead, NC

Current Version | Previous Version | Graphics & Text | Print | Product List | Glossary On
Versions: 1 2 3 4 5 6 7 8 9 10 11 12 13 14 15 16 17 18 19 20 21 22 23 24 25 26 27 28 29 30 31 32 33 34 35 36 37 38 39 40 41 42 43 44 45 46 47 48 49 50
000 ASUS42 KMHX 181614 RWRMHX WEATHER ROUNDUP FOR EASTERN NORTH CAROLINA NATIONAL WEATHER SERVICE NEWPORT/MOREHEAD CITY NC 1100 AM EST SAT NOV 18 2017 NOTE: "FAIR" INDICATES FEW OR NO CLOUDS BELOW 12,000 FEET WITH NO SIGNIFICANT WEATHER AND/OR OBSTRUCTIONS TO VISIBILITY NCZ015>017-031-032-045>047-102-103-181700- NORTH COAST CITY SKY/WX TMP DP RH WIND PRES REMARKS EDENTON SUNNY 59 49 68 SW10G16 30.02F ELIZABETH CITY SUNNY 58 48 69 S14 30.00F KITTY HAWK CLOUDY 56 44 64 CALM 30.01F MANTEO CLOUDY 56 47 71 S12 30.03F $$ NCZ045>047-081-094-103-104-181700- CENTRAL COAST CITY SKY/WX TMP DP RH WIND PRES REMARKS FRISCO SUNNY 62 52 69 VRB3 30.04F $$ NCZ095-097-098-100-101-181700- SOUTHERN COAST CITY SKY/WX TMP DP RH WIND PRES REMARKS BEAUFORT SUNNY 62 53 72 S8 30.04F CEDAR ISLAND NOT AVBL JACKSONVILLE SUNNY 66 53 63 S9 30.02F PINEY ISLAND NOT AVBL WILMINGTON SUNNY 68 48 48 S6 30.03F $$ NCZ011>013-027>030-043-044-078>080-089-090>093-098-181700- COASTAL PLAIN CITY SKY/WX TMP DP RH WIND PRES REMARKS AHOSKIE SUNNY 56 40 54 S6 29.98F CLINTON SUNNY 61 48 62 SW5 30.03F ELIZABETHTOWN NOT AVBL GOLDSBORO SUNNY 62 46 55 SW10 29.98F GREENVILLE SUNNY 59 45 58 SW13 30.02F HAVELOCK NOT AVBL KENANSVILLE SUNNY 63 48 59 SW7 30.03F KINSTON SUNNY 63 46 55 S12 30.01F NEW BERN SUNNY 63 50 62 S8 30.03F RICHLANDS SUNNY 66 49 54 S10 30.03F ROCKY MOUNT SUNNY 58 44 60 SW10G23 29.97F WASHINGTON SUNNY 59 47 63 SW7 30.01F WHITEVILLE PTSUNNY 64 50 60 S7 30.03F $$ AMZ130-135-150-152-154-156-158-170-250-252-270-ANZ085-086-088-633-658-670-181700- MARINE OBSERVATIONS STATION/POSITION TIME TEMP WIND PRES WAVE SWELL AIR SEA DIR/SP/G HT/PER HT/PER (UTC) (F) (DEG/KT/KT) (MB) (FT/S) (FT/S) CHESAPEAKE LIGHT NOT AVBL 64 E VA BEACH 1550 58 61 220/ 17/ 19 1016.4 3/ 4 2/11 DUCK NOT AVBL 2 E DUCK 1600 59 N/A 2/12 2/12 OREGON INLET NOT AVBL 13E OREGON INLT 1548 61 N/A 2/11 2/11 HATTERAS CG NOT AVBL DIAMOND BUOY 1600 60 65 300/ 6/ 8 1017.5 CAPE LOOKOUT 1600 63 180/ 7/ 9 1017.8 BEAUFORT LAB NOT AVBL 30 SE NEW RVR IN 1508 63 70 220/ 2/ 4 1018.3 30 SE NEW RVR IN 1600 70 N/A 3/ 9 2/11 27 SE WRIGHTSVLE 1508 63 67 150/ 4/ 8 1017.6 5 SE WRIGHTSVLE 1508 63 64 180/ 8/ 12 1017.5 225 S CAPE HAT 1550 70 77 150/ 6/ 8 1018.4 5/10 5/10 41 SE CHARLESTON 1600 73 76 170/ 16/ 19 1016.5 $$

USA.gov is the U.S. government's official web portal to all federal, state and local government web resources and services.